Weather History for Pensacola NAS, FL

Change the Weather History Date:

Wednesday, January 2, 2013

  Actual Average Record
Temperature  
Mean Temperature 11 °C -  
Max Temperature 14 °C 15 °C - (-1)
Min Temperature 8 °C 4 °C - (-1)
Degree Days  
Heating Degree Days 12    
Growing Degree Days 2 (Base 50)    
Moisture  
Dew Point 9 °C    
Average Humidity 85    
Maximum Humidity 97    
Minimum Humidity 72    
Precipitation  
Precipitation 0.00 mm - - ()
Sea Level Pressure  
Sea Level Pressure 1019 hPa    
Wind  
Wind Speed 14 km/h (North)    
Max Wind Speed 23 km/h    
Max Gust Speed 34 km/h    
Visibility 16 kilometers    
Events Rain    
Averages and records for this station are not official NWS values.
T = Trace of Precipitation, MM = Missing Value Source: NWS Daily Summary

Daily Weather History Graph

Daily Weather History Graph

Search for Another Location

Airport:

Trip Planner

Search our weather history database for the weather conditions in past years. The results will help you decide how hot, cold, wet, or windy it might be!

Date:

Astronomy

Jan. 02, 2013 Rise Set
Actual Time 6:46 AM CST 5:00 PM CST
Civil Twilight 6:19 AM CST 5:27 PM CST
Nautical Twilight 5:50 AM CST 5:57 PM CST
Astronomical Twilight 5:20 AM CST 6:26 PM CST
Moon 10:07 PM CST (1/2) 9:50 AM CST (1/2)
Length of Visible Light 11h 07m
Length of Day
10h 14m
Waning Gibbous, 75% of the Moon is Illuminated
Jan 2
Waning Gibbous
Jan 4
Last Quarter
Jan 11
New
Jan 18
First Quarter
Jan 26
Full

Hourly Weather History & Observations

Time (CST) Temp. Dew Point Humidity Pressure Visibility Wind Dir Wind Speed Gust Speed Precip Events Conditions
12:56 AM 14.4 °C 13.9 °C 97% 1015.4 hPa 16.1 km North 11.1 km/h / 3.1 m/s - N/A   Overcast
1:56 AM 13.3 °C 12.8 °C 97% 1015.8 hPa 16.1 km North 14.8 km/h / 4.1 m/s - N/A   Overcast
2:56 AM 13.3 °C 12.2 °C 93% 1016.2 hPa 16.1 km North 18.5 km/h / 5.1 m/s 29.6 km/h / 8.2 m/s N/A   Overcast
3:03 AM 13.0 °C 12.0 °C 94% 1016.1 hPa 16.1 km North 16.7 km/h / 4.6 m/s - N/A   Overcast
3:56 AM 12.8 °C 11.7 °C 93% 1016.2 hPa 16.1 km North 11.1 km/h / 3.1 m/s 29.6 km/h / 8.2 m/s 0.0 mm   Overcast
4:17 AM 13.0 °C 12.0 °C 94% 1016.1 hPa 16.1 km North 16.7 km/h / 4.6 m/s - N/A   Overcast
4:56 AM 12.2 °C 11.7 °C 97% 1016.6 hPa 11.3 km North 16.7 km/h / 4.6 m/s - 0.0 mm Rain Light Rain
5:56 AM 11.7 °C 10.6 °C 93% 1017.3 hPa 16.1 km North 18.5 km/h / 5.1 m/s 33.3 km/h / 9.3 m/s 0.0 mm   Overcast
6:56 AM 11.7 °C 10.0 °C 89% 1017.9 hPa 16.1 km North 13.0 km/h / 3.6 m/s 27.8 km/h / 7.7 m/s N/A   Overcast
7:56 AM 11.7 °C 10.0 °C 89% 1018.6 hPa 16.1 km North 18.5 km/h / 5.1 m/s - N/A   Overcast
8:56 AM 12.2 °C 10.0 °C 86% 1019.7 hPa 16.1 km North 14.8 km/h / 4.1 m/s 27.8 km/h / 7.7 m/s N/A   Mostly Cloudy
9:06 AM 13.0 °C 10.0 °C 82% 1019.2 hPa 16.1 km North 22.2 km/h / 6.2 m/s - N/A   Mostly Cloudy
9:37 AM 13.0 °C 9.0 °C 77% 1019.5 hPa 16.1 km North 16.7 km/h / 4.6 m/s - N/A   Mostly Cloudy
9:56 AM 12.8 °C 8.9 °C 77% 1020.0 hPa 16.1 km North 14.8 km/h / 4.1 m/s - N/A   Mostly Cloudy
10:56 AM 13.3 °C 8.9 °C 75% 1019.5 hPa 16.1 km North 13.0 km/h / 3.6 m/s - N/A   Overcast
11:56 AM 13.3 °C 8.9 °C 75% 1018.8 hPa 16.1 km North 16.7 km/h / 4.6 m/s - N/A   Overcast
12:56 PM 13.9 °C 8.9 °C 72% 1017.8 hPa 16.1 km North 16.7 km/h / 4.6 m/s - N/A   Overcast
1:56 PM 11.7 °C 8.3 °C 80% 1018.0 hPa 16.1 km North 9.3 km/h / 2.6 m/s - N/A   Overcast
2:56 PM 11.7 °C 7.8 °C 77% 1018.0 hPa 16.1 km North 13.0 km/h / 3.6 m/s 25.9 km/h / 7.2 m/s N/A   Overcast
3:56 PM 11.7 °C 7.8 °C 77% 1018.5 hPa 16.1 km North 14.8 km/h / 4.1 m/s - N/A   Overcast
4:56 PM 10.6 °C 7.8 °C 83% 1019.7 hPa 16.1 km NNW 13.0 km/h / 3.6 m/s - N/A   Overcast
5:56 PM 10.0 °C 7.2 °C 83% 1020.5 hPa 16.1 km NNW 16.7 km/h / 4.6 m/s 33.3 km/h / 9.3 m/s N/A   Overcast
6:56 PM 10.0 °C 6.7 °C 80% 1020.3 hPa 16.1 km North 16.7 km/h / 4.6 m/s 27.8 km/h / 7.7 m/s N/A   Mostly Cloudy
7:56 PM 9.4 °C 6.7 °C 83% 1020.4 hPa 16.1 km North 14.8 km/h / 4.1 m/s - N/A   Overcast
8:56 PM 9.4 °C 6.7 °C 83% 1020.8 hPa 16.1 km North 13.0 km/h / 3.6 m/s 27.8 km/h / 7.7 m/s N/A   Overcast
9:56 PM 8.9 °C 6.7 °C 86% 1021.6 hPa 16.1 km NNW 16.7 km/h / 4.6 m/s - N/A   Overcast
10:56 PM 8.9 °C 6.1 °C 83% 1020.2 hPa 16.1 km NNE 16.7 km/h / 4.6 m/s - N/A   Overcast
11:56 PM 8.3 °C 6.1 °C 86% 1021.4 hPa 16.1 km North 16.7 km/h / 4.6 m/s 27.8 km/h / 7.7 m/s 0.0 mm Rain Light Rain